This is the latest recevied weather packets stored in our database for station/object KC4GS-13. If no packets are shown the sender has not sent any weather packets the latest 10 day(s).
| Time | Temp. | Humidity | Pressure | Rain* | Wind** | Luminosity | Snow |
|---|---|---|---|---|---|---|---|
| 1777927876 | 28.33° C | 33% | 1015.7 hPa | 0 mm | - | 493 W/m² | - |
| 1777927574 | 28.33° C | 32% | 1015.7 hPa | 0 mm | - | 521 W/m² | - |
| 1777927273 | 27.78° C | 32% | 1015.8 hPa | 0 mm | - | 321 W/m² | - |
| 1777926970 | 28.89° C | 30% | 1015.8 hPa | 0 mm | - | 502 W/m² | - |
| 1777926662 | 28.89° C | 30% | 1015.9 hPa | 0 mm | - | 498 W/m² | - |
| 1777926357 | 28.89° C | 28% | 1015.9 hPa | 0 mm | - | 517 W/m² | - |
| 1777926055 | 28.89° C | 29% | 1015.9 hPa | 0 mm | - | 553 W/m² | - |
| 1777925751 | 28.89° C | 28% | 1015.9 hPa | 0 mm | - | 618 W/m² | - |
| 1777925449 | 28.89° C | 27% | 1015.9 hPa | 0 mm | - | 397 W/m² | - |
| 1777925145 | 28.89° C | 27% | 1015.9 hPa | 0 mm | - | 582 W/m² | - |
| 1777924842 | 28.89° C | 28% | 1016.3 hPa | 0 mm | - | 637 W/m² | - |
| 1777924538 | 28.33° C | 27% | 1016.1 hPa | 0 mm | - | 686 W/m² | - |
| 1777924235 | 28.89° C | 29% | 1016.5 hPa | 0 mm | - | 658 W/m² | - |
| 1777923932 | 27.78° C | 29% | 1016.4 hPa | 0 mm | - | 626 W/m² | - |
| 1777923627 | 27.78° C | 27% | 1016.2 hPa | 0 mm | - | 704 W/m² | - |
| 1777923324 | 27.22° C | 28% | 1016.3 hPa | 0 mm | - | 728 W/m² | - |
| 1777923023 | 27.78° C | 25% | 1016.6 hPa | 0 mm | - | 718 W/m² | - |
| 1777922721 | 28.33° C | 25% | 1016.7 hPa | 0 mm | - | 711 W/m² | - |
| 1777922419 | 28.89° C | 28% | 1016.4 hPa | 0 mm | - | 718 W/m² | - |
| 1777922116 | 28.33° C | 28% | 1016.7 hPa | 0 mm | - | 767 W/m² | - |
| 1777921812 | 27.78° C | 28% | 1016.6 hPa | 0 mm | - | 724 W/m² | - |
| 1777921508 | 27.78° C | 27% | 1016.7 hPa | 0 mm | - | 701 W/m² | - |
| 1777921204 | 27.22° C | 27% | 1016.9 hPa | 0 mm | - | 730 W/m² | - |
| 1777920901 | 26.67° C | 29% | 1016.9 hPa | 0 mm | - | 536 W/m² | - |
| 1777920598 | 27.22° C | 29% | 1016.9 hPa | 0 mm | - | 652 W/m² | - |
* Rain latest hour (hover to see other rain measurements)
** Current wind speed in m/s (hover to see current wind gust speed)